Current Weather Conditions: station 62114

sailwx.info

See reports from other nearby stations

no recent reports received from weather station ID 62114

Tides Pressure Air temp Water temp Dewpoint Dewpoint depression Visibility Wind speed Wind direction Waves Ship positions
date/time (UTC)wind fromknots sea level pressurealtimeterstation pressurevisibilityair tempwater tempwave heightnotes
2016-Jun-01 06:00 360 20 9.5
2016-Jun-01 05:00 360 20 9.6
2016-Jun-01 04:00 360 20 9.4
2016-Jun-01 03:00 010 20 9.6
2016-Jun-01 02:00 010 20 9.6
2016-Jun-01 01:00 010 20 9.6
2016-Jun-01 00:00 010 20 9.6
2016-May-31 23:00 010 20 9.7
2016-May-31 22:00 360 20 9.6
2016-May-31 21:00 350 20 9.6
2016-May-31 20:00 360 20 9.7
2016-May-31 19:00 010 19 9.8
2016-May-31 18:00 010 20 9.8
2016-May-31 17:00 010 20 10.0
2016-May-31 16:00 010 19 10.0
2016-May-31 15:00 010 18 10.1
2016-May-31 14:00 010 18 10.1
2016-May-31 13:00 010 18 10.0
2016-May-31 12:00 360 17 10.0
2016-May-31 11:00 010 20 9.7
2016-May-31 10:00 360 18 9.5
2016-May-31 09:00 360 19 9.4
2016-May-31 08:00 360 19 9.3
2016-May-31 07:00 360 19 9.0
2016-May-31 06:00 360 20 8.8
2016-May-31 05:00 360 20 8.8
2016-May-31 04:00 350 20 8.9
2016-May-31 03:00 350 20 9.0
2016-May-31 02:00 360 20 8.9
2016-May-31 01:00 360 20 9.0
2016-May-31 00:00 360 19 9.1
2016-May-30 23:00 360 19 9.3
2016-May-30 22:00 360 19 9.4
2016-May-30 21:00 360 18 9.5
2016-May-30 20:00 360 19 9.6
2016-May-30 19:00 350 18 10.2
2016-May-30 18:00 350 18 10.7
2016-May-30 17:00 350 19 10.8
2016-May-30 16:00 350 18 11.1
2016-May-30 15:00 350 17 11.3
2016-May-30 14:00 360 16 11.4
2016-May-30 13:00 360 18 11.3
2016-May-30 12:00 360 18 11.6
2016-May-30 11:00 350 16 11.8
2016-May-30 10:00 360 15 11.9
2016-May-30 09:00 360 14 13.8
2016-May-30 08:00 010 14 13.0
2016-May-30 07:00 020 14 12.8